Notices

What's New in latest Release from April 7th, 2021:

- Updated Glossary, including Speed of Maximum Gust, and Total Hourly Precipitation

- Updated national and regional climate services offices contacts and prices information

- Addition of station inventory lists for 1981-2010, 1971-2000, and 1961-1990 Normals.

If you haven't already, please take our survey and provide feedback about our website: https://eccc.sondage-survey.ca/f/LanguageSelection.aspx?s=442ca660-fcf1-47c0-95a9-59707d6fd709

Hourly Data Report for November 11, 2019

CARBERRY CS
MANITOBA
Current Station Operator: ECCC - MSC

49°54'20.900" N
99°21'26.800" W
383.50 m
5010547
71170
WZE

Download Data

Hourly Data (November 2019)
Hourly Data Report for November 11, 2019
TIME
LST
Temp Definition
°C
Dew Point Definition
°C
Rel Hum Definition
%
Precip. Amount Definition
mm

Wind Dir Definition
10's deg

Wind Spd Definition
km/h
Visibility Definition
km
Stn Press Definition
kPa
Hmdx Definition


Wind Chill Definition


Weather Definition


00:00 -16.0 -19.9 72 0.0 30 13   98.86   -24 LegendNANA
01:00 -16.4 -21.0 68 0.0 31 15   98.89   -25 LegendNANA
02:00 -17.3 -21.6 69 0.0 29 15   98.92   -26 LegendNANA
03:00 -18.3 -22.0 73 0.0 28 15   98.94   -27 LegendNANA
04:00 -18.4 -22.0 74 0.2 28 17   98.94   -28 LegendNANA
05:00 -18.9 -22.3 74 0.0 28 19   98.95   -29 LegendNANA
06:00 -19.7 -22.8 76 0.0 25 11   99.00   -27 LegendNANA
07:00 -20.2 -23.1 77 0.0 25 14   99.03   -29 LegendNANA
08:00 -20.5 -23.5 77 0.0 24 8   99.05   -27 LegendNANA
09:00 -18.9 -22.5 74 0.0 26 16   99.08   -28 LegendNANA
10:00 -16.8 -20.9 70 0.0 27 20   99.07   -26 LegendNANA
11:00 -15.1 -20.2 65 0.0 27 19   99.09   -24 LegendNANA
12:00 -12.9 -19.4 58 0.0 28 19   99.04   -21 LegendNANA
13:00 -12.4 -19.8 54 0.0 26 20   98.97   -21 LegendNANA
14:00 -12.0 -19.6 53 0.0 27 21   98.93   -21 LegendNANA
15:00 -12.2 -19.9 53 0.0 26 22   98.87   -21 LegendNANA
16:00 -12.5 -19.5 56 0.0 25 15   98.80   -20 LegendNANA
17:00 -13.7 -19.3 63 0.0 23 12   98.74   -20 LegendNANA
18:00 -15.1 -20.2 65 0.0 22 8   98.72   -20 LegendNANA
19:00 -16.1 -20.1 71 0.0 21 10   98.66   -23 LegendNANA
20:00 -15.8 -19.1 76 0.0 21 10   98.59   -22 LegendNANA
21:00 -16.3 -19.4 77 0.0 17 13   98.44   -24 LegendNANA
22:00 -17.0 -19.6 80 0.0 19 14   98.34   -25 LegendNANA
23:00 -17.5 -20.0 81 0.0 19 12   98.24   -25 LegendNANA

Notes on Data Quality.

Legend

  • E = Estimated
  • M = Missing
  • NA = Not Available*
  • [empty] = Indicates an unobserved value
Date modified: